Regional Weather Roundup
Issued by NWS Upton, NY

Current Version | Previous Version | Graphics & Text | Print | Product List | Glossary Off
Versions: 1 2 3 4 5 6 7 8 9 10 11 12 13 14 15 16 17 18 19 20 21 22 23 24 25 26 27

000
ASUS41 KOKX 180108
RWROKX

REGIONAL WEATHER ROUNDUP
NATIONAL WEATHER SERVICE NEW YORK NY
900 PM EDT TUE OCT 17 2017

NOTE: "FAIR" INDICATES FEW OR NO CLOUDS BELOW 12,000 FEET WITH NO
SIGNIFICANT WEATHER AND/OR OBSTRUCTIONS TO VISIBILITY.

NYZ071-072-176-178-NJZ106-104-180200-
NEW YORK CITY METRO AREA

CITY           SKY/WX    TMP DP  RH WIND       PRES   REMARKS
Central Park   CLEAR     54  40  59 VRB3      30.30S
Bronx Bot Gard   N/A     52  39  62 SE2       30.29S
LaGuardia APRT CLEAR     56  41  57 SW7       30.28R
Kennedy INTL   CLEAR     54  43  66 SW10      30.29S
Breezy Point     N/A     54 N/A N/A SW12        N/A
Newark/Liberty CLEAR     53  41  63 S10       30.28R
Teterboro      CLEAR     53  41  63 S8        30.27R
$$

NYZ177-179-078>081-180200-
LONG ISLAND NEW YORK

CITY           SKY/WX    TMP DP  RH WIND       PRES   REMARKS
Jones Beach      N/A     55 N/A N/A SW7         N/A
Matinecock PT    N/A     52 N/A N/A S7          N/A
Farmingdale    CLEAR     51  39  63 SW3       30.29R
MacArthur/ISP  CLEAR     50  41  71 SW6       30.29R
Shirley        CLEAR     47  40  76 CALM      30.29S
Mt Sinai Harb    N/A    N/A N/A N/A S7          N/A
Westhampton    CLEAR     36  31  82 CALM      30.30S
East Hampton   FAIR      36  34  95 CALM      30.28S
Montauk          N/A     52  41  66 SW5       30.29F
$$

NYZ052-065-067-180200-
HUDSON VALLEY

CITY           SKY/WX    TMP DP  RH WIND       PRES   REMARKS
White Plains   CLEAR     50  37  61 CALM      30.26R
Larchmont Harb   N/A     55 N/A N/A S15         N/A
Croton On Huds   N/A     55 N/A N/A SW8         N/A
Newburgh       CLEAR     50  36  57 SW52      30.26R
Montgomery     CLEAR     44  37  76 SW3       30.24R
Poughkeepsie   CLEAR     42  36  79 CALM      30.24R
Albany         CLEAR     49  34  56 S8        30.20F
$$

NJZ001-105-106-008-010-013-015-019>022-104-180200-
NEW JERSEY

CITY           SKY/WX    TMP DP  RH WIND       PRES   REMARKS
Newark/Liberty CLEAR     53  41  63 S10       30.28R
Teterboro      CLEAR     53  41  63 S8        30.27R
Caldwell       CLEAR     49  38  65 CALM      30.28S
Somerville     CLEAR     42  39  89 CALM      30.27R
Linden         FAIR      52  39  61 CALM      30.29R
Perth Amboy      N/A     52 N/A N/A S12         N/A
Sussex         CLEAR     42  39  89 CALM      30.26S
Andover          N/A     43  39  86 CALM      30.27S
Trenton        CLEAR     51  36  56 SW3       30.29R
Millville      CLEAR     44  42  93 CALM      30.32R
Atlantic City  CLEAR     46  41  82 CALM      30.32R
Wrightstown    CLEAR     45  39  81 CALM      30.29R
Toms River       N/A     40  38  93 CALM      30.32R
Belmar         CLEAR     47  40  76 S7        30.31
$$

PAZ047>061-062-071-180200-
EASTERN PENNSYLVANIA

CITY           SKY/WX    TMP DP  RH WIND       PRES   REMARKS
Philadelphia   CLEAR     54  38  54 S7        30.31R
Allentown      CLEAR     47  35  63 SW3       30.28S
Scranton       CLEAR     50  32  50 CALM      30.25S
$$

CTZ002-004>006-009-010-012-RIZ004-006-007-MAZ004-011-015-180200-
SOUTHERN NEW ENGLAND
 IN CT

CITY           SKY/WX    TMP DP  RH WIND       PRES   REMARKS
Bradley INTL   CLEAR     48  37  65 S7        30.25R
Hartford       CLEAR     48  38  68 S6        30.26R
Danbury        CLEAR     51  35  54 S6        30.27R
Wtrbury/Oxford CLEAR     46  35  65 SW5       30.27R
Norwalk Harbor   N/A     55 N/A N/A S16         N/A
Bridgeport     CLEAR     56  41  57 SW13      30.27R
Meriden        CLEAR     43  39  86 CALM      30.27R
New Haven      CLEAR     56  40  55 SW9G17    30.27R
Chester        FAIR      50  37  62 SW5       30.27R
Groton         CLEAR     54  38  54 SW12      30.27R
Wilimantic     CLEAR     44  37  76 CALM      30.27R

 IN RI

CITY           SKY/WX    TMP DP  RH WIND       PRES   REMARKS
Providence     CLEAR     47  39  74 SW7       30.28R
Block Island   CLEAR     51  38  60 SW10      30.28S
Westerly       CLEAR     53  38  56 SW6       30.28S
 IN MA

CITY           SKY/WX    TMP DP  RH WIND       PRES   REMARKS
Boston         CLEAR     50  37  61 SW16      30.24R
Worcester      CLEAR     44  28  53 SW9       30.23R
Westfield      CLEAR     40  35  83 SW6       30.24R
Provincetown   CLEAR     51  40  65 SW14      30.26R
Nantucket      CLEAR     46  39  76 SW7       30.27S
$$

ANZ330-335-338-340-345-350-353-355-180200-
COASTAL MARINE OBSERVATIONS


STATION/POSITION TIME  SKY/WX   TEMP    WIND        PRES    VSBY  WAVE
                                AIR SEA DIR/SP/G                  HT/PER
                 (UTC)          (F)     (DEG/KT/KT) (MB)    (MI)  (FT/S)
NY HARB ENTRANCE 2350            57 65  210/ 10/ 12 1024.9          2/11
20 S FIRE ISLAND 2350            54 64  210/  8/ 10 1025.8          2/10
GREAT SOUTH BAY  0015            56 62  220/ 10/ 12   N/A
15 E BARNEGAT LI 0030               66                N/A           3/ 5
HUDSON CANYON    2350            54 64   CALM  /  2 1025.5          3/ 7
KINGS POINT      0030            56 66  240/ 10/ 11 1025.9
EXECUTION ROCKS  0030            57     170/ 14/ 17   N/A
WESTERN LI SOUND 2345            56     180/ 14/ 17   N/A           1
CENTRAL LI SOUND 0030            57     220/ 16/ 17   N/A           1
EASTERN LI SOUND NOT AVBL
ROBBINS REEF     0048            55     200/ 14/ 16 1025.9
$$


>>>>>>>>>>>>>>>>>>>>>>>>>>>> KEY <<<<<<<<<<<<<<<<<<<<<<<<<<<
>                                                          <
>     SKY/WX - Sky Condition/Present Weather               <
>     TMP    - Temperature in Fahrenheit                   <
>     DP     - Dew Point in Fahrenheit                     <
>     RH     - Relative Humidity in Percent                <
>     WIND   - Direction (from) and Speed in MPH           <
>     PRES   - Mean Sea Level Pressure (inches of Hg)      <
>     WCI    - Wind Chill Index                            <
>     VSB    - VISIBILITY IN MILES                         <
>     HX     - HEAT INDEX                                  <
>     TC     - TEMPERATURE IN CELSIUS                      <
>     VRB    - VARIABLE WIND DIRECTION                     <
>                                                          <
>>>>>>>>>>>>>>>>>>>>>>>>>>>> KEY <<<<<<<<<<<<<<<<<<<<<<<<<<<




USA.gov is the U.S. government's official web portal to all federal, state and local government web resources and services.